Track OSCAR 22 (UoSAT 5) now! 10-day predictions OSCAR 22 (UoSAT 5) is classified as:
1 21575U 91050B 21055.43811464 .00000027 00000-0 22438-4 0 9991 2 21575 98.5972 114.3083 0006414 233.6635 126.3962 14.40947903555235